TimeMDT,TemperatureF,Dew PointF,Humidity,Sea Level PressureIn,VisibilityMPH,Wind Direction,Wind SpeedMPH,Gust SpeedMPH,PrecipitationIn,Events,Conditions,WindDirDegrees,DateUTC
12:53 AM,32.0,23.0,69,30.15,10.0,NNE,12.7,-,N/A,,Clear,30,2012-10-15 06:53:00
1:53 AM,28.9,24.1,82,30.16,10.0,SSE,3.5,-,N/A,,Clear,160,2012-10-15 07:53:00
2:53 AM,30.9,21.9,69,30.13,10.0,NE,8.1,-,N/A,,Clear,50,2012-10-15 08:53:00
3:53 AM,30.0,21.0,69,30.11,10.0,Calm,Calm,-,N/A,,Clear,0,2012-10-15 09:53:00
4:53 AM,28.0,19.9,72,30.12,10.0,NE,6.9,-,N/A,,Clear,40,2012-10-15 10:53:00
5:53 AM,30.0,19.0,64,30.11,10.0,Variable,3.5,-,N/A,,Clear,0,2012-10-15 11:53:00
6:53 AM,27.0,19.9,75,30.14,10.0,Calm,Calm,-,N/A,,Clear,0,2012-10-15 12:53:00
7:53 AM,27.0,19.0,72,30.17,10.0,NNE,8.1,-,N/A,,Clear,30,2012-10-15 13:53:00
8:53 AM,36.0,21.0,55,30.13,10.0,NNE,3.5,-,N/A,,Clear,20,2012-10-15 14:53:00
9:53 AM,44.1,21.0,40,30.09,10.0,North,8.1,-,N/A,,Clear,360,2012-10-15 15:53:00
10:53 AM,50.0,12.9,23,30.04,10.0,NW,15.0,19.6,N/A,,Clear,320,2012-10-15 16:53:00
11:53 AM,51.1,16.0,25,30.02,10.0,NW,17.3,24.2,N/A,,Clear,320,2012-10-15 17:53:00
12:53 PM,53.1,18.0,25,29.96,10.0,North,17.3,25.3,N/A,,Clear,360,2012-10-15 18:53:00
1:53 PM,55.0,19.0,24,29.96,10.0,North,13.8,20.7,N/A,,Clear,350,2012-10-15 19:53:00
2:53 PM,54.0,18.0,24,29.94,10.0,NW,15.0,21.9,N/A,,Clear,320,2012-10-15 20:53:00
3:53 PM,54.0,19.9,26,29.95,10.0,NW,10.4,21.9,N/A,,Clear,320,2012-10-15 21:53:00
4:53 PM,52.0,12.0,20,29.97,10.0,NW,15.0,25.3,N/A,,Clear,320,2012-10-15 22:53:00
5:53 PM,50.0,17.1,27,29.96,10.0,North,4.6,-,N/A,,Clear,350,2012-10-15 23:53:00
6:53 PM,44.1,21.9,42,30.01,10.0,North,6.9,-,N/A,,Clear,10,2012-10-16 00:53:00
7:53 PM,41.0,21.0,45,30.04,10.0,North,4.6,-,N/A,,Clear,350,2012-10-16 01:53:00
8:53 PM,37.9,21.0,51,30.00,10.0,Variable,4.6,-,N/A,,Clear,0,2012-10-16 02:53:00
9:53 PM,39.0,19.9,46,29.93,10.0,NNW,6.9,-,N/A,,Clear,340,2012-10-16 03:53:00
10:53 PM,39.9,17.1,40,29.87,10.0,ENE,3.5,-,N/A,,Clear,70,2012-10-16 04:53:00
11:53 PM,41.0,19.0,41,29.85,10.0,WNW,8.1,-,N/A,,Clear,290,2012-10-16 05:53:00